SCP
0 0 0 0 0 0 0 0 0 0 0 0 0 0 0 0 0 0 0 0 0 0 0 0 0 0 0 0 0 0 0 0 0 0 0 0 0 0 0 0 0 0 0
0 0 0 0 0 0 0 0 0 0 0 0 0 0 0 0 0 0 0 0 0 0 0 0 0 0 0 0 0 0 0 0 0 0 0 0 0 0 0 0 0 0 0
0 0 0 0 0 0 0 0 0 0 0 0 0 0 0 0 0 0 0 0 0 0 0 0 0 0 0 0 0 0 0 0 0 0 0 0 0 0 0 0 0 0 0
0 0 0 0 0 0 0 0 0 0 0 0 0 0 0 0 0 0 0 0 0 0 0 0 0 0 0 0 0 0 0 0 0 0 0 0 0 0 0 0 0 0 0
0 0 0 0 0 0 0 0 0 0 0 0 0 0 0 0 0 0 0 0 0 0 0 0 0 0 0 0 0 0 0 0 0 0 0 0 0 0 0 0 0 0 0
0 0 0 0 0 0 0 0 0 0 0 0 0 0 0 0 0 0 0 0 0 0 0 0 0 0 0 0 0 0 0 0 0 0 0 0 0 0 0 0 0 0 0
0 0 0 0 0 0 0 0 0 0 0 0 0 0 0 0 0 0 0 0 0 0 0 0 0 0 0 0 0 0 0 0 0 0 0 0 0 0 0 0 0 0 0
0 0 0 0 0 0 0 0 0 0 0 0 0 0 0 0 0 0 0 0 0 0 0 0 0 0 0 0 0 0 0 0 0 0 0 0 0 0 0 0 0 0 0
0 0 0 0 0 0 0 0 0 0 0 0 0 0 0 0 0 0 0 0 0 0 0 0 0 0 0 0 0 0 0 0 0 0 0 0 0 0 0 0 0 0 0
0 0 0 0 0 0 0 0 0 0 0 0 0 0 0 0 0 0 0 0 0 0 0 0 0 0 0 0 0 0 0 0 0 0 0 0 0 0 0 0 0 0 0
0 0 0 0 0 0 0 0 0 0 0 0 0 0 0 0 0 0 0 0 0 0 0 0 0 0 0 0 0 0 0 0 0 0 0 0 0 0 0 0 0 0 0
0 0 0 0 0 0 0 0 0 0 0 0 0 0 0 0 0 0 0 0 0 0 0 0 0 0 0 0 0 0 0 0 0 0 0 0 0 0 0 0 0 0 0
0 0 0 0 0 0 0 0 0 0 0 0 0 0 0 0 0 0 0 0 0 0 0 0 0 0 0 0 0 0 0 0 0 0 0 0 0 0 0 0 0 0 0
0 0 0 0 0 0 0 0 0 0 0 0 0 0 0 0 0 0 0 0 0 0 0 0 0 0 0 0 0 0 0 0 0 0 0 0 0 0 0 0 0 0 0
0 0 0 0 0 0 0 0 0 0 0 0 0 0 0 0 0 0 0 0 0 0 0 0 0 0 0 0 0 0 0 0 0 0 0 0 0 0 0 0 0 0 0
0 0 0 0 0 0 0 0 0 0 0 0 0 0 0 0 0 0 0 0 0 0 0 0 0 0 0 0 0 0 0 0 0 0 0 0 0 0 0 0 0 0 0
0 0 0 0 0 0 0 0 0 0 0 0 0 0 0 0 0 0 0 0 0 0 0 0 0 0 0 0 0 0 0 0 0 0 0 0 0 0 0 0 0 0 0
0 0 0 0 0 0 0 0 0 0 0 0 0 0 0 0 0 0 0 0 0 0 0 0 0 0 0 0 0 0 0 0 0 0 0 0 0 0 0 0 0 0 0
0 0 0 0 0 0 0 0 0 0 0 0 0 0 0 0 0 0 0 0 0 0 0 0 0 0 0 0 0 0 0 0 0 0 0 0 0 0 0 0 0 0 0
0 0 0 0 0 0 0 0 0 0 0 0 0 0 0 0 0 0 0 0 0 0 0 0 0 0 0 0 0 0 0 0 0 0 0 0 0 0 0 0 0 0 0
0 0 0 0 0 0 0 0 0 0 0 0 0 0 0 0 0 0 0 0 0 0 0 0 0 0 0 0 0 0 0 0 0 0 0 0 0 0 0 0 0 0 0
0 0 0 0 0 0 0 0 0 0 0 0 0 0 0 0 0 0 0 0 0 0 0 0 0 0 0 0 0 0 0 0 0 0 0 0 0 0 0 0 0 0 0
0 0 0 0 0 0 0 0 0 0 0 0 0 0 0 0 0 0 0 0 0 0 0 0 0 0 0 0 0 0 0 0 0 0 0 0 0 0 0 0 0 0 0
0 0 0 0 0 0 0 0 0 0 0 0 0 0 0 0 0 0 0 0 0 0 0 0 0 0 0 0 0 0 0 0 0 0 0 0 0 0 0 0 0 0 0
0 0 0 0 0 0 0 0 0 0 0 0 0 0 0 0 0 0 0 0 0 0 0 0 0 0 0 0 0 0 0 0 0 0 0 0 0 0 0 0 0 0 0
0 0 0 0 0 0 0 0 0 0 0 0 0 0 0 0 0 0 0 0 0 0 0 0 0 0 0 0 0 0 0 0 0 0 0 0 0 0 0 0 0 -0 -0
Wind_Speed
16 15 14 13 12 11 11 13 13 12 14 15 15 14 13 12 11 9 8 8 8 7 6 5 4 3 2 2 3 4 5 5 10 10 4 5 9 12 12 11 12 14 14
16 15 16 14 14 15 15 14 15 15 15 15 15 15 14 13 11 11 10 9 9 9 7 6 6 4 5 4 4 5 5 6 6 15 13 10 14 14 14 15 14 14 14
13 14 15 15 17 19 18 16 17 17 16 16 16 16 15 13 12 11 10 9 9 8 8 8 7 7 7 6 5 5 5 6 7 11 16 13 13 13 16 15 16 14 15
14 16 18 20 20 19 17 17 18 18 18 18 16 15 14 13 13 12 11 10 9 8 8 8 8 8 7 6 5 5 5 6 8 11 14 14 14 15 14 14 16 11 12
16 18 20 18 15 14 16 16 17 17 17 17 15 14 13 12 12 13 12 11 10 9 8 8 8 10 11 9 6 6 6 6 7 10 13 15 15 14 14 14 18 16 14
18 19 16 14 14 16 16 16 16 16 15 15 16 16 15 12 19 22 15 12 11 10 9 8 8 9 11 13 14 13 13 10 10 11 14 16 19 18 17 16 18 20 21
17 15 13 15 16 17 16 17 18 17 16 16 16 16 16 17 25 25 22 13 11 9 9 8 6 6 7 7 10 14 14 19 21 17 18 20 21 19 20 22 20 21 23
13 13 14 16 16 16 17 18 18 15 16 16 16 16 15 17 26 26 24 13 10 10 9 8 7 6 7 8 8 8 11 13 17 15 16 19 19 20 20 23 24 24 25
12 14 15 16 16 17 19 18 14 15 14 14 13 13 13 15 25 25 22 9 9 10 9 9 8 8 11 13 9 9 12 13 18 23 26 27 31 33 29 19 18 18 22
8 8 9 11 13 15 15 13 10 12 13 13 12 11 11 11 21 24 21 7 8 8 7 7 10 12 12 13 8 9 12 12 11 13 18 20 20 22 27 19 15 16 20
1 5 8 9 11 11 11 11 12 12 13 12 12 11 11 11 19 24 22 9 9 7 6 5 7 11 12 13 13 8 13 15 9 9 11 13 13 13 14 14 14 15 19
3 5 7 8 8 9 11 12 13 14 14 12 12 11 9 10 12 19 23 18 14 7 6 6 6 10 11 14 11 11 17 14 5 7 9 11 12 12 12 14 17 18 19
3 5 7 8 8 9 11 12 12 12 12 12 12 12 11 10 13 21 23 22 20 9 7 9 6 7 9 8 10 13 9 4 5 8 10 12 12 13 15 15 17 18 21
8 8 9 10 10 10 10 11 12 13 13 13 13 13 12 11 11 11 10 11 14 10 6 4 3 3 4 6 7 7 5 6 7 9 11 12 13 13 14 14 16 15 17
10 10 11 12 12 12 12 12 14 13 15 15 13 13 15 14 16 21 14 8 6 7 7 3 2 1 1 3 4 5 5 6 7 8 10 12 13 14 14 15 15 16 18
10 11 10 10 10 10 11 10 19 16 21 23 19 15 11 16 26 27 24 20 18 16 8 3 2 1 3 4 4 5 6 6 8 9 10 11 13 14 16 15 15 16 18
14 12 10 10 11 11 11 11 11 15 21 23 22 22 19 25 29 27 25 22 19 14 5 4 3 3 4 5 5 5 6 7 8 9 11 12 13 14 15 16 16 16 17
15 14 12 11 11 12 12 11 11 12 13 12 18 24 26 29 27 26 26 18 10 6 4 4 3 3 4 5 5 5 6 8 8 10 11 12 13 14 15 16 16 18 19
14 11 11 10 10 10 11 11 11 12 12 12 13 18 24 26 26 24 18 8 7 5 4 4 3 3 4 5 4 5 6 7 9 10 11 12 13 14 15 16 18 22 21
13 14 12 11 11 11 12 12 13 13 13 14 14 14 14 14 12 10 6 6 6 5 4 4 3 4 4 5 4 5 5 7 9 11 12 12 13 13 16 19 19 19 18
9 10 14 11 10 11 12 12 13 13 13 13 12 15 21 14 12 10 8 7 6 5 4 3 3 3 4 4 4 5 6 8 9 11 12 12 13 13 14 16 18 19 19
6 7 9 9 9 10 10 11 11 12 13 14 13 16 22 11 10 9 8 6 5 4 3 3 2 4 5 5 5 5 6 8 10 11 12 14 13 13 14 16 18 19 19
6 8 8 8 8 11 11 10 11 11 12 13 13 12 11 10 9 8 7 6 4 3 2 2 3 5 5 5 5 6 7 9 10 12 15 15 13 14 15 17 21 22 22
7 8 8 8 8 9 9 10 10 11 12 12 11 11 10 9 8 8 6 5 3 2 2 2 4 7 11 8 6 6 8 10 11 13 18 14 13 14 15 17 19 22 22
8 8 8 8 8 9 9 10 10 10 10 10 10 10 10 9 8 7 5 4 3 2 3 3 4 6 10 12 10 10 13 17 16 15 14 10 12 14 16 18 18 21 22
8 9 8 8 8 8 9 10 10 10 10 9 9 9 9 8 7 6 4 3 2 2 3 3 6 9 11 10 12 14 16 18 19 19 10 8 11 13 16 15 20 19 22
Wind_Direction
197 197 195 195 191 184 185 184 178 173 170 174 173 170 172 172 170 169 173 172 154 141 141 146 161 169 205 217 231 246 254 258 275 286 285 311 314 307 303 298 294 294 292
201 194 197 191 185 190 192 184 176 175 173 174 173 172 174 174 173 173 174 173 159 156 158 162 180 186 204 216 227 246 256 262 280 297 306 314 311 308 302 299 297 292 287
197 195 195 192 193 197 193 182 176 174 173 174 174 175 175 174 174 174 173 173 165 160 161 171 186 197 211 216 224 241 256 273 282 292 300 306 303 303 303 295 287 282 280
198 199 200 200 200 197 188 181 178 174 174 176 177 175 173 171 171 172 173 169 162 161 166 178 193 206 216 217 225 235 247 264 277 283 290 297 298 299 295 297 296 285 284
202 204 207 203 195 184 181 179 176 175 177 175 171 171 170 170 173 174 174 166 161 164 174 188 204 215 222 220 218 217 227 246 263 274 283 290 292 296 296 298 295 296 285
203 208 203 188 182 182 179 175 173 172 172 171 173 171 172 176 183 182 171 165 164 170 178 193 210 220 234 246 253 255 251 253 259 267 277 281 287 291 294 293 293 294 292
204 203 189 181 181 180 175 174 174 173 171 175 175 175 176 182 184 181 174 164 167 172 180 194 208 214 215 237 256 267 272 272 271 274 277 280 287 292 292 289 284 282 281
200 195 185 183 181 175 175 178 176 171 175 178 179 179 177 186 184 181 175 165 165 173 187 198 210 222 230 240 248 254 258 262 266 271 274 280 282 285 283 283 282 280 277
199 195 188 183 178 177 181 181 173 170 174 177 176 177 177 186 185 182 173 157 167 181 194 201 213 224 240 255 261 261 268 269 277 281 283 285 288 292 293 292 290 289 287
210 192 176 177 178 182 181 173 166 166 169 171 173 174 173 180 186 183 170 158 171 182 197 210 219 225 238 255 257 260 273 282 287 288 289 291 294 291 288 280 281 281 281
177 149 158 171 175 172 165 164 161 163 164 170 164 166 170 178 190 184 178 166 177 177 187 203 220 234 250 264 272 272 280 289 288 292 295 291 286 281 278 276 274 274 280
149 150 159 163 163 163 162 162 164 164 165 168 164 166 171 176 191 189 188 181 181 173 186 197 213 242 265 279 286 284 291 303 310 298 288 283 283 284 283 283 280 275 271
175 172 166 162 164 167 167 166 169 171 172 176 176 175 173 172 186 190 191 187 184 170 179 192 213 268 291 297 295 299 308 306 289 284 283 283 285 288 290 287 283 279 276
197 187 177 174 175 174 174 174 180 184 184 182 183 178 171 170 177 180 180 181 181 165 146 126 77 338 304 296 298 303 294 279 280 281 284 289 295 294 291 292 293 293 290
208 194 186 186 184 184 189 193 195 199 195 186 184 177 172 174 180 176 166 160 150 139 121 94 80 64 292 279 281 284 285 285 284 284 290 296 297 295 294 294 294 294 293
215 204 196 191 191 189 190 199 212 205 209 203 193 182 178 174 169 169 168 170 168 155 130 122 138 199 256 270 280 289 291 291 293 294 293 294 296 297 297 296 296 296 295
222 208 198 193 191 190 188 188 193 199 202 200 190 179 169 164 165 164 162 156 148 141 120 137 168 217 248 262 269 279 287 292 295 293 290 292 294 294 295 298 301 300 296
231 213 200 195 191 189 186 185 184 179 180 179 176 169 165 162 161 156 147 132 125 108 125 153 188 223 246 256 269 282 289 294 294 291 289 289 289 291 296 302 303 302 300
237 218 202 192 187 184 182 180 178 176 169 159 153 161 160 156 152 145 134 129 142 144 153 171 198 229 249 259 266 273 280 287 289 289 287 288 290 294 302 305 305 303 302
237 214 190 182 179 178 178 179 175 170 164 160 159 156 150 141 135 129 119 131 138 149 163 182 209 234 251 261 266 272 282 287 291 287 288 291 292 300 308 309 307 307 305
225 197 177 173 176 175 174 175 171 165 163 159 151 159 154 143 141 140 140 145 153 162 172 187 217 247 255 258 262 271 280 284 286 286 290 293 297 309 312 309 308 307 306
176 162 163 166 165 167 167 164 160 159 157 150 153 157 143 134 139 141 143 147 153 161 171 188 232 249 253 255 258 269 278 282 284 287 294 295 303 314 314 312 311 311 311
122 135 142 145 149 152 151 151 152 153 154 159 156 141 136 139 139 140 141 145 153 164 177 198 241 264 260 251 246 249 261 271 278 286 294 297 312 319 317 314 313 314 315
98 112 120 125 130 136 139 143 146 150 152 146 136 132 135 136 136 135 137 143 155 175 210 228 246 265 273 275 266 257 257 265 274 284 288 296 312 317 316 316 315 316 318
86 97 106 113 119 124 128 131 136 139 136 132 130 128 129 128 128 130 136 149 165 207 252 260 263 270 273 277 281 280 280 287 290 291 292 301 311 314 317 316 318 320 322
86 93 100 106 113 120 126 130 133 133 129 126 124 125 127 127 130 135 144 156 175 238 275 277 269 273 278 284 285 286 290 296 301 305 309 311 315 317 321 321 322 324 326